Victoria, TX

6:13 PM CDT on October 21, 2019 (GMT -0500)
Victoria Regional

Weather History for KVCT - August, 2019

Change the Weather History Date:

Wednesday, August 14, 2019

  Actual Average Record
Temperature  
Mean Temperature 91 °F 85 °F  
Max Temperature 102 °F 95 °F 105 °F (1938)
Min Temperature 79 °F 74 °F 66 °F (1967)
Degree Days  
Heating Degree Days 0 0  
Month to date heating degree days 0 0  
Since 1 June heating degree days 0 0  
Since 1 July heating degree days 0 0  
Cooling Degree Days 26 20  
Month to date cooling degree days 320 280  
Year to date cooling degree days 2273 2033  
Since 1 June cooling degree days 1505 1374  
Growing Degree Days 40 (Base 50)    
Moisture  
Dew Point 73 °F    
Average Humidity 64    
Maximum Humidity 97    
Minimum Humidity 31    
Precipitation  
Precipitation 0.00 in 0.07 in 1.42 in (1960)
Month to date precipitation 0.10 1.09  
Year to date precipitation 14.74 25.11  
Snow  
Snow 0.00 in 0.00 in 0.00 in (2002)
Month to date snowfall 0.0 0.0  
Since 1 June snowfall 0.0 0.0  
Since 1 July snowfall 0.0 0.0  
Snow Depth 0.00 in    
Sea Level Pressure  
Sea Level Pressure 29.94 in    
Wind  
Wind Speed 6 mph (South)    
Max Wind Speed 18 mph    
Max Gust Speed 22 mph    
Visibility 9 miles    
Events      
T = Trace of Precipitation, MM = Missing Value Source: NWS Daily Summary

Daily Weather History Graph

Daily Weather History Graph

Search for Another Location

Airport or City:

Astronomy

Aug. 14, 2019 Rise Set
Actual Time 6:56 AM CDT 8:08 PM CDT
Civil Twilight 6:31 AM CDT 8:33 PM CDT
Nautical Twilight 6:01 AM CDT 9:02 PM CDT
Astronomical Twilight 5:30 AM CDT 9:33 PM CDT
Moon 7:57 PM CDT (8/14) 6:02 AM CDT (8/14)
Length of Visible Light 14h 02m
Length of Day
13h 12m
Waxing Gibbous, 99% of the Moon is Illuminated
Aug 14
Waxing Gibbous
Aug 15
Full
Aug 23
Last Quarter
Aug 30
New
Sep 5
First Quarter

Hourly Weather History & Observations

Time (CDT) Temp. Heat Index Dew Point Humidity Pressure Visibility Wind Dir Wind Speed Gust Speed Precip Events Conditions
12:51 AM 81.0 °F 87.9 °F 77.0 °F 88% 29.93 in 10.0 mi South 6.9 mph - N/A   Clear
1:51 AM 82.0 °F 91.0 °F 78.1 °F 88% 29.92 in 9.0 mi SSW 5.8 mph - N/A   Clear
2:51 AM 82.0 °F 91.0 °F 78.1 °F 88% 29.92 in 9.0 mi SSW 5.8 mph - N/A   Clear
3:51 AM 80.1 °F 85.8 °F 77.0 °F 90% 29.93 in 8.0 mi Calm Calm - N/A   Clear
4:51 AM 79.0 °F - 75.9 °F 90% 29.92 in 7.0 mi SSW 4.6 mph - N/A   Clear
5:51 AM 79.0 °F - 77.0 °F 94% 29.93 in 7.0 mi SW 3.5 mph - N/A   Clear
6:51 AM 79.0 °F - 77.0 °F 94% 29.95 in 6.0 mi Calm Calm - N/A   Partly Cloudy
7:51 AM 80.1 °F 85.8 °F 77.0 °F 90% 29.96 in 5.0 mi Calm Calm - N/A   Partly Cloudy
8:51 AM 84.9 °F 95.3 °F 77.0 °F 77% 29.97 in 7.0 mi SW 8.1 mph - N/A   Scattered Clouds
9:05 AM 86.0 °F 96.9 °F 77.0 °F 74% 29.98 in 10.0 mi SSW 8.1 mph - N/A   Mostly Cloudy
9:34 AM 87.1 °F 97.3 °F 75.9 °F 69% 29.99 in 10.0 mi SSW 9.2 mph - N/A   Scattered Clouds
9:51 AM 87.1 °F 96.3 °F 75.0 °F 67% 29.99 in 10.0 mi SSW 6.9 mph - N/A   Partly Cloudy
10:51 AM 90.0 °F 96.9 °F 72.0 °F 55% 29.99 in 10.0 mi South 6.9 mph - N/A   Partly Cloudy
11:51 AM 93.0 °F 100.1 °F 71.1 °F 49% 29.99 in 10.0 mi Calm Calm - N/A   Scattered Clouds
12:51 PM 97.0 °F 102.8 °F 69.1 °F 40% 29.97 in 10.0 mi Calm Calm - N/A   Partly Cloudy
1:51 PM 98.1 °F 102.4 °F 66.9 °F 36% 29.95 in 10.0 mi Variable 4.6 mph - N/A   Clear
2:51 PM 100.0 °F 104.2 °F 66.0 °F 33% 29.92 in 10.0 mi Variable 4.6 mph - N/A   Scattered Clouds
3:51 PM 100.9 °F 104.6 °F 64.9 °F 31% 29.89 in 10.0 mi SE 10.4 mph - N/A   Scattered Clouds
4:51 PM 100.9 °F 106.0 °F 66.9 °F 33% 29.86 in 10.0 mi South 5.8 mph - N/A   Mostly Cloudy
5:51 PM 99.0 °F 106.2 °F 70.0 °F 39% 29.86 in 10.0 mi SSE 12.7 mph - N/A   Mostly Cloudy
6:51 PM 96.1 °F 103.5 °F 71.1 °F 44% 29.87 in 10.0 mi South 17.3 mph - N/A   Partly Cloudy
7:51 PM 91.0 °F 98.2 °F 72.0 °F 53% 29.86 in 10.0 mi South 12.7 mph - N/A   Clear
8:51 PM 88.0 °F 94.7 °F 72.0 °F 59% 29.91 in 10.0 mi South 10.4 mph - N/A   Clear
9:51 PM 86.0 °F 93.8 °F 73.9 °F 67% 29.93 in 10.0 mi South 9.2 mph - N/A   Clear
10:51 PM 84.9 °F 94.1 °F 75.9 °F 74% 29.97 in 10.0 mi South 9.2 mph - N/A   Scattered Clouds
11:51 PM 84.0 °F 92.6 °F 75.9 °F 76% 29.98 in 10.0 mi Calm Calm - N/A   Partly Cloudy